Regional Weather Roundup
Issued by NWS

Home | Current Version | Previous Version | Graphics & Text | Print | Product List | Glossary On
Versions: 1 2 3 4 5 6 7 8 9 10 11 12 13 14 15 16 17 18 19 20 21 22 23 24 25
000
ASUS45 KSLC 170510
RWRUT

UTAH REGIONAL WEATHER ROUNDUP
NATIONAL WEATHER SERVICE SALT LAKE CITY UT
1000 PM MST FRI FEB 16 2018

UTZ001>011-023>025-170600-

NORTHERN UTAH

CITY           SKY/WX    TMP DP  RH WIND       PRES   REMARKS
BRIGHAM CITY   CLOUDY    37  12  35 SW5       30.15R WCI  34
HILL AFB       CLOUDY    37  10  32 S10       30.14R WCI  30
LOGAN          CLOUDY    36  16  44 E3        30.11S
OGDEN          CLOUDY    39  10  30 SW7       30.14R WCI  34
SALT LAKE CITY MOCLDY    38  16  40 SE5       30.16R WCI  34
TOOELE VALLEY  CLEAR     27  18  69 S10       30.17R WCI  17
WENDOVER       CLEAR     25  10  53 W6        30.18R WCI  18
HEBER CITY       N/A     27  12  54 SE3       30.11R
WEST JORDAN    MOCLDY    31  18  58 SW8       30.17R WCI  24

$$

UTZ011>015-024>027-170600-

CENTRAL/NORTHEAST UTAH

CITY           SKY/WX    TMP DP  RH WIND       PRES   REMARKS
PROVO AIRPORT  CLEAR     30  21  69 CALM      30.18R
MOAB/CANYONLAN CLEAR     30  20  66 CALM      30.12R
DELTA          CLEAR     28  16  59 N6        30.16R WCI  22
PRICE          CLEAR     22  11  62 N9        30.10R WCI  12
ROOSEVELT      CLEAR     30   5  34 NE10      30.06R WCI  21
VERNAL         CLEAR     22  10  60 W5        30.04S WCI  16

$$

UTZ013>016-019>022-027-170600-

SOUTHERN UTAH

CITY           SKY/WX    TMP DP  RH WIND       PRES   REMARKS
BRYCE CANYON   CLEAR     22  13  68 W3        30.17R
CEDAR CITY     CLEAR     32  16  51 S8        30.14R WCI  25
MILFORD        CLEAR     26  14  60 SW3       30.12S
ST GEORGE      PTCLDY    41  29  62 CALM      30.20R
HANKSVILLE     CLEAR     28  12  50 CALM      30.16S
BLANDING         N/A     24  16  71 NW3       30.21S

$$

REGIONAL REPORTS     COLORADO/ARIZONA

CITY           SKY/WX    TMP DP  RH WIND       PRES   REMARKS
CRAIG, CO      CLOUDY    20  13  74 NE5       30.03R WCI  13
GRAND JUNCTION CLEAR     28  21  75 NE3       30.12R
RIFLE, CO      CLOUDY    32  18  56 W16       30.08R WCI  21
MONTROSE, CO   CLEAR     26  21  81 S7        30.12F WCI  18
CORTEZ, CO     PTCLDY    25  19  78 E3        30.14R
COLORADO CITY    N/A     32  28  86 N3        30.21R
PAGE, AZ       CLEAR     36  21  54 CALM      30.16R
GRAND CANYON   CLEAR     24  20  84 CALM      30.19R
KINGMAN, AZ    CLEAR     38  25  59 E8        30.18R WCI  32
FLAGSTAFF, AZ  MOCLDY    29  26  89 CALM      30.18R

$$

REGIONAL REPORTS    NEVADA/IDAHO/WYOMING

CITY           SKY/WX    TMP DP  RH WIND       PRES   REMARKS
LAS VEGAS, NV  CLEAR     51  15  23 S3        30.15S
ELY, NY        CLEAR     27  10  49 NE6       30.17R WCI  20
ELKO, NV       CLOUDY    26  18  71 CALM      30.20R
POCATELLO, ID  PTCLDY    30  20  66 SW22      30.10R WCI  17
BURLEY, ID     CLOUDY    33  21  61 W8        30.12S WCI  26
FORT BRIDGER,    N/A     27   9  45 W29G38    30.02S WCI  11
EVANSTON, WY   CLOUDY    27  11  51 SW17G23   30.05F WCI  14
ROCK SPRINGS,  CLOUDY    28   7  41 W22G30    29.98S WCI  14

$$




USA.gov is the U.S. government's official web portal to all federal, state and local government web resources and services.